Weather History for Bradshaw AFB, HI

Change the Weather History Date:

Thursday, September 19, 2013

  Actual Average Record
Temperature  
Mean Temperature 60 °F -  
Max Temperature 70 °F 69 °F 73 °F (1996)
Min Temperature 49 °F 49 °F 44 °F (2000)
Degree Days  
Heating Degree Days 6    
Growing Degree Days 10 (Base 50)    
Moisture  
Dew Point 51 °F    
Average Humidity 72    
Maximum Humidity 89    
Minimum Humidity 47    
Precipitation  
Precipitation 0.00 in - - ()
Sea Level Pressure  
Sea Level Pressure 30.32 in    
Wind  
Wind Speed 7 mph (South)    
Max Wind Speed 12 mph    
Max Gust Speed 22 mph    
Visibility 12 miles    
Events      
Averages and records for this station are not official NWS values.
T = Trace of Precipitation, MM = Missing Value Source: NWS Daily Summary

Daily Weather History Graph

Daily Weather History Graph

Search for Another Location

Airport:

Trip Planner

Search our weather history database for the weather conditions in past years. The results will help you decide how hot, cold, wet, or windy it might be!

Date:

Astronomy

Sep. 19, 2013 Rise Set
Actual Time 6:10 AM HST 6:20 PM HST
Civil Twilight 5:48 AM HST 6:42 PM HST
Nautical Twilight 5:22 AM HST 7:08 PM HST
Astronomical Twilight 4:57 AM HST 7:33 PM HST
Moon 6:38 PM HST (9/19) 6:23 AM HST (9/19)
Length of Visible Light 12h 54m
Length of Day
12h 10m
Full, 100% of the Moon is Illuminated
Sep 19
Full
Sep 26
Last Quarter
Oct 4
New
Oct 11
First Quarter
Oct 18
Full

Hourly Weather History & Observations

Time (HST) Temp. Dew Point Humidity Pressure Visibility Wind Dir Wind Speed Gust Speed Precip Events Conditions
12:56 AM 50.5 °F 46.9 °F 87% 30.30 in 12.0 mi ESE 5.8 mph - N/A   Clear
1:56 AM 50.7 °F 45.9 °F 83% 30.29 in 12.0 mi ESE 4.6 mph - N/A   Clear
2:56 AM 50.9 °F 47.3 °F 87% 30.28 in 12.0 mi ESE 8.1 mph - N/A   Clear
3:56 AM 49.8 °F 43.3 °F 78% 30.27 in 12.0 mi ESE 4.6 mph - N/A   Clear
4:56 AM 50.7 °F 47.1 °F 87% 30.27 in 12.0 mi SE 9.2 mph - N/A   Clear
5:56 AM 50.7 °F 47.5 °F 89% 30.28 in 12.0 mi ESE 8.1 mph - N/A   Clear
6:56 AM 52.9 °F 45.9 °F 77% 30.30 in 12.0 mi ESE 5.8 mph - N/A   Clear
7:57 AM 60.4 °F 52.2 °F 74% 30.32 in 12.0 mi SSE 8.1 mph - N/A   Clear
8:56 AM 63.1 °F 51.4 °F 66% 30.34 in 12.0 mi South 11.5 mph - N/A   Clear
9:56 AM 66.9 °F 47.1 °F 49% 30.35 in 12.0 mi SSW 8.1 mph 13.8 mph N/A   Clear
10:56 AM 68.0 °F 47.1 °F 47% 30.36 in 12.0 mi SW 4.6 mph 13.8 mph N/A   Clear
11:56 AM 70.3 °F 51.8 °F 52% 30.34 in 12.0 mi WSW 10.4 mph 17.3 mph N/A   Partly Cloudy
12:56 PM 69.8 °F 51.1 °F 51% 30.33 in 12.0 mi WSW 8.1 mph 16.1 mph N/A   Partly Cloudy
1:56 PM 70.7 °F 54.9 °F 57% 30.31 in 12.0 mi West 10.4 mph 17.3 mph N/A   Partly Cloudy
2:41 PM 69.8 °F 55.4 °F 60% 30.31 in 11.0 mi WSW 10.4 mph 21.9 mph N/A   Mostly Cloudy
2:56 PM 70.9 °F 55.8 °F 59% 30.31 in 12.0 mi WSW 9.2 mph 17.3 mph N/A   Mostly Cloudy
3:01 PM 69.8 °F 55.4 °F 60% 30.31 in 12.0 mi WSW 11.5 mph 17.3 mph N/A   Scattered Clouds
3:41 PM 68.0 °F 55.4 °F 64% 30.31 in 12.0 mi WSW 11.5 mph 17.3 mph N/A   Mostly Cloudy
3:56 PM 68.7 °F 56.1 °F 64% 30.31 in 12.0 mi WSW 9.2 mph 15.0 mph N/A   Mostly Cloudy
4:16 PM 68.0 °F 55.4 °F 64% 30.32 in 12.0 mi WSW 6.9 mph 16.1 mph N/A   Scattered Clouds
4:56 PM 66.2 °F 55.2 °F 68% 30.32 in 12.0 mi WSW 6.9 mph - N/A   Scattered Clouds
5:56 PM 63.0 °F 54.9 °F 75% 30.34 in 12.0 mi West 8.1 mph - N/A   Partly Cloudy
6:31 PM 60.8 °F 55.4 °F 82% 30.35 in 12.0 mi West 5.8 mph - N/A   Mostly Cloudy
6:56 PM 59.4 °F 54.5 °F 84% 30.35 in 12.0 mi West 2.3 mph - N/A   Overcast
7:51 PM 59.0 °F 53.6 °F 82% 30.35 in 12.0 mi SSE 4.6 mph - N/A   Scattered Clouds
7:56 PM 58.1 °F 52.5 °F 82% 30.35 in 12.0 mi SSE 4.6 mph - N/A   Partly Cloudy
8:56 PM 54.7 °F 51.6 °F 89% 30.37 in 12.0 mi SE 6.9 mph - N/A   Clear
9:56 PM 53.4 °F 48.9 °F 85% 30.37 in 12.0 mi ESE 4.6 mph - N/A   Clear
10:56 PM 52.2 °F 46.4 °F 81% 30.36 in 12.0 mi ESE 5.8 mph - N/A   Clear
11:56 PM 51.6 °F 47.8 °F 87% 30.36 in 12.0 mi ESE 8.1 mph - N/A   Clear